Coatesville, PA

10:56 AM EST on November 22, 2017 (GMT -0500)
Chester County Carlson

Weather History for KMQS - February, 2014

Change the Weather History Date:

Tuesday, February 25, 2014

  Actual Average (KILG) Record (KILG)
Temperature  
Mean Temperature 26 °F -  
Max Temperature 32 °F 45 °F 78 °F (1930)
Min Temperature 21 °F 28 °F 5 °F (1914)
Degree Days  
Heating Degree Days 38    
Moisture  
Dew Point 15 °F    
Average Humidity 61    
Maximum Humidity 86    
Minimum Humidity 47    
Precipitation  
Precipitation 0.38 in - - ()
Sea Level Pressure  
Sea Level Pressure 30.04 in    
Wind  
Wind Speed 5 mph (WNW)    
Max Wind Speed 15 mph    
Max Gust Speed 20 mph    
Visibility 8 miles    
Events Snow    
Averages and records for this station are not official NWS values.
T = Trace of Precipitation, MM = Missing Value Source: NWS Daily Summary

Daily Weather History Graph

Daily Weather History Graph

Search for Another Location

Airport or City:

Trip Planner

Search our weather history database for the weather conditions in past years. The results will help you decide how hot, cold, wet, or windy it might be!

Date:

Astronomy

Feb. 25, 2014 Rise Set
Actual Time 6:42 AM EST 5:50 PM EST
Civil Twilight 6:15 AM EST 6:18 PM EST
Nautical Twilight 5:44 AM EST 6:49 PM EST
Astronomical Twilight 5:12 AM EST 7:21 PM EST
Moon 3:35 AM EST (2/25) 1:54 PM EST (2/25)
Length of Visible Light 12h 02m
Length of Day
11h 08m
Waning Crescent, 18% of the Moon is Illuminated
Feb 25
Waning Crescent
Mar 1
New
Mar 8
First Quarter
Mar 16
Full
Mar 23
Last Quarter

Hourly Weather History & Observations

Time (EST) Temp. Windchill Dew Point Humidity Pressure Visibility Wind Dir Wind Speed Gust Speed Precip Events Conditions
12:10 AM 26.6 °F 21.2 °F 10.4 °F 51% 30.11 in 10.0 mi WNW 4.6 mph - N/A   Clear
12:30 AM 26.6 °F 22.6 °F 10.4 °F 51% 30.11 in 10.0 mi West 3.5 mph - N/A   Clear
12:50 AM 23.0 °F 14.7 °F 10.4 °F 59% 30.10 in 10.0 mi NW 6.9 mph - N/A   Clear
1:10 AM 23.0 °F - 10.4 °F 59% 30.10 in 10.0 mi Calm Calm - N/A   Clear
1:30 AM 24.8 °F - 8.6 °F 50% 30.09 in 10.0 mi Calm Calm - N/A   Clear
1:50 AM 23.0 °F - 8.6 °F 54% 30.08 in 10.0 mi Calm Calm - N/A   Clear
2:10 AM 26.6 °F - 8.6 °F 47% 30.09 in 10.0 mi Calm Calm - N/A   Clear
2:50 AM 23.0 °F - 8.6 °F 54% 30.08 in 10.0 mi Calm Calm - N/A   Clear
4:50 AM 21.2 °F - 10.4 °F 63% 30.07 in 10.0 mi Calm Calm - N/A   Clear
5:10 AM 23.0 °F - 10.4 °F 59% 30.07 in 10.0 mi Calm Calm - N/A   Clear
5:30 AM 21.2 °F 16.4 °F 12.2 °F 68% 30.07 in 10.0 mi WNW 3.5 mph - N/A   Clear
5:50 AM 23.0 °F - 12.2 °F 63% 30.08 in 10.0 mi Calm Calm - N/A   Partly Cloudy
6:10 AM 23.0 °F - 14.0 °F 68% 30.08 in 10.0 mi Calm Calm - N/A   Clear
6:30 AM 23.0 °F 18.4 °F 14.0 °F 68% 30.08 in 10.0 mi West 3.5 mph - N/A   Clear
6:50 AM 24.8 °F 20.5 °F 12.2 °F 59% 30.08 in 10.0 mi West 3.5 mph - N/A   Clear
7:10 AM 26.6 °F 22.6 °F 10.4 °F 51% 30.09 in 10.0 mi West 3.5 mph - N/A   Clear
7:30 AM 26.6 °F - 12.2 °F 55% 30.09 in 10.0 mi Calm Calm - N/A   Clear
7:50 AM 26.6 °F - 10.4 °F 51% 30.10 in 10.0 mi Calm Calm - N/A   Scattered Clouds
8:10 AM 26.6 °F - 12.2 °F 55% 30.10 in 9.0 mi Calm Calm - N/A Snow Light Snow
8:30 AM 26.6 °F - 14.0 °F 59% 30.10 in 9.0 mi Calm Calm - N/A Snow Light Snow
8:50 AM 26.6 °F - 17.6 °F 69% 30.10 in 3.0 mi Calm Calm - 0.01 in Snow Light Snow
9:10 AM 26.6 °F 22.6 °F 19.4 °F 74% 30.09 in 3.0 mi WSW 3.5 mph - N/A Snow Light Snow
9:30 AM 26.6 °F 21.2 °F 21.2 °F 80% 30.09 in 1.2 mi WSW 4.6 mph - 0.04 in Snow Light Snow
9:50 AM 26.6 °F 21.2 °F 23.0 °F 86% 30.09 in 0.8 mi WSW 4.6 mph - 0.14 in Snow Light Snow
10:10 AM 26.6 °F 22.6 °F 23.0 °F 86% 30.08 in 0.8 mi WSW 3.5 mph - 0.04 in Snow Light Snow
10:30 AM 28.4 °F 23.3 °F 23.0 °F 80% 30.08 in 1.2 mi SW 4.6 mph - 0.12 in Snow Light Snow
10:50 AM 28.4 °F 21.2 °F 23.0 °F 80% 30.07 in 2.5 mi West 6.9 mph - 0.14 in Snow Light Snow
11:10 AM 28.4 °F 19.7 °F 23.0 °F 80% 30.07 in 2.5 mi West 9.2 mph - 0.01 in Snow Light Snow
11:30 AM 28.4 °F 20.4 °F 23.0 °F 80% 30.07 in 1.5 mi West 8.1 mph - 0.05 in Snow Light Snow
12:10 PM 28.4 °F 21.2 °F 23.0 °F 80% 30.04 in 1.8 mi West 6.9 mph - 0.01 in Snow Light Snow
12:30 PM 30.2 °F 21.9 °F 23.0 °F 75% 30.03 in 2.5 mi West 9.2 mph - 0.03 in Snow Light Snow
12:50 PM 30.2 °F 22.6 °F 23.0 °F 75% 30.02 in 3.0 mi West 8.1 mph - 0.04 in Snow Light Snow
1:10 PM 30.2 °F 21.3 °F 23.0 °F 75% 30.01 in 5.0 mi West 10.4 mph 16.1 mph N/A Snow Light Snow
1:30 PM 32.0 °F 24.2 °F 23.0 °F 69% 30.00 in 10.0 mi West 9.2 mph - N/A Snow Light Snow
1:50 PM 32.0 °F 23.0 °F 21.2 °F 64% 29.99 in 7.0 mi West 11.5 mph 18.4 mph N/A Snow Light Snow
2:10 PM 30.2 °F 19.3 °F 19.4 °F 64% 29.99 in 10.0 mi NW 15.0 mph - N/A Snow Light Snow
2:30 PM 32.0 °F 23.6 °F 17.6 °F 55% 29.98 in 10.0 mi West 10.4 mph 18.4 mph N/A   Mostly Cloudy
2:50 PM 32.0 °F 21.6 °F 17.6 °F 55% 29.98 in 10.0 mi WNW 15.0 mph - N/A   Mostly Cloudy
3:10 PM 32.0 °F 21.6 °F 17.6 °F 55% 29.98 in 10.0 mi NW 15.0 mph - N/A   Overcast
3:30 PM 30.2 °F 19.8 °F 15.8 °F 55% 29.98 in 10.0 mi NW 13.8 mph 19.6 mph N/A   Overcast
3:50 PM 30.2 °F 19.8 °F 15.8 °F 55% 29.98 in 10.0 mi NW 13.8 mph - N/A   Mostly Cloudy
4:10 PM 30.2 °F 19.3 °F 15.8 °F 55% 29.97 in 10.0 mi NW 15.0 mph 18.4 mph N/A   Mostly Cloudy
4:30 PM 30.2 °F 19.8 °F 15.8 °F 55% 29.98 in 10.0 mi NW 13.8 mph - N/A   Mostly Cloudy
4:50 PM 30.2 °F 21.9 °F 17.6 °F 60% 29.98 in 10.0 mi NW 9.2 mph - N/A   Partly Cloudy
5:10 PM 30.2 °F 20.8 °F 15.8 °F 55% 29.98 in 10.0 mi NW 11.5 mph 17.3 mph N/A   Clear
5:30 PM 30.2 °F 20.8 °F 15.8 °F 55% 29.98 in 10.0 mi NW 11.5 mph - N/A   Partly Cloudy
5:50 PM 28.4 °F 18.5 °F 14.0 °F 55% 29.99 in 10.0 mi NW 11.5 mph - N/A   Clear
6:10 PM 30.2 °F 21.3 °F 12.2 °F 47% 29.99 in 10.0 mi NW 10.4 mph - N/A   Clear
6:30 PM 28.4 °F 19.7 °F 12.2 °F 51% 30.00 in 10.0 mi NW 9.2 mph - N/A   Clear
6:50 PM 28.4 °F 19.7 °F 12.2 °F 51% 30.00 in 10.0 mi NW 9.2 mph - N/A   Clear
7:10 PM 24.8 °F 16.1 °F 12.2 °F 59% 30.02 in 10.0 mi WNW 8.1 mph - N/A   Clear
7:30 PM 24.8 °F 16.9 °F 12.2 °F 59% 30.02 in 10.0 mi NW 6.9 mph - N/A   Clear
7:50 PM 26.6 °F 20.0 °F 12.2 °F 55% 30.01 in 10.0 mi WNW 5.8 mph - N/A   Clear
8:10 PM 26.6 °F 21.2 °F 12.2 °F 55% 30.01 in 10.0 mi NNW 4.6 mph - N/A   Clear
8:30 PM 26.6 °F 20.0 °F 12.2 °F 55% 30.01 in 10.0 mi NW 5.8 mph - N/A   Clear
8:55 PM 24.8 °F 19.1 °F 12.2 °F 59% 30.01 in 10.0 mi WNW 4.6 mph - N/A   Clear
9:10 PM 23.0 °F 15.8 °F 12.2 °F 63% 30.02 in 10.0 mi WNW 5.8 mph - N/A   Clear
9:30 PM 26.6 °F - 12.2 °F 55% 30.02 in 10.0 mi Calm Calm - N/A   Clear
9:50 PM 26.6 °F - 12.2 °F 55% 30.02 in 10.0 mi Calm Calm - N/A   Clear
10:10 PM 24.8 °F - 12.2 °F 59% 30.01 in 10.0 mi Calm Calm - N/A   Clear
10:30 PM 26.6 °F 20.0 °F 12.2 °F 55% 30.00 in 10.0 mi NW 5.8 mph - N/A   Clear
10:50 PM 26.6 °F 19.1 °F 12.2 °F 55% 29.99 in 10.0 mi NW 6.9 mph - N/A   Clear
11:10 PM 24.8 °F 20.5 °F 12.2 °F 59% 29.99 in 10.0 mi West 3.5 mph - N/A   Clear
11:30 PM 23.0 °F 18.4 °F 12.2 °F 63% 29.99 in 10.0 mi WSW 3.5 mph - N/A   Clear
11:50 PM 24.8 °F 20.5 °F 12.2 °F 59% 29.98 in 10.0 mi WSW 3.5 mph - N/A   Clear